Wind_Speed
8 8 8 9 9 9 9 8 8 9 9 8 8 9 9 8 9 9 9 10 10 11 11 11 11 11 12 12 12 13 13 13 13 13 14 14 14 14 14 14 14 14 14 14
8 9 9 9 9 9 9 9 9 9 9 9 10 10 10 9 10 10 10 11 11 12 12 12 12 12 13 13 13 13 13 13 13 14 14 14 14 14 15 15 15 15 14 14
10 9 10 10 9 9 9 9 10 10 10 10 10 11 11 11 11 11 12 12 12 12 13 13 13 13 14 14 14 14 14 14 14 15 15 15 15 15 15 15 15 15 15 14
10 10 10 10 10 9 10 10 10 10 10 11 11 11 11 11 11 12 12 12 13 13 13 13 13 14 14 14 14 15 15 16 15 15 16 16 16 16 16 16 16 16 15 15
10 10 10 10 10 10 11 10 10 10 11 12 12 12 12 12 12 12 13 13 13 13 14 15 15 15 15 15 15 16 16 17 16 16 17 17 17 17 17 17 17 16 15 15
11 10 10 11 11 11 10 10 10 11 11 12 12 13 13 13 13 13 13 13 14 14 15 16 16 16 16 16 16 17 17 18 18 18 18 18 18 17 17 17 17 17 17 17
11 11 11 11 11 11 11 11 11 11 12 12 12 13 13 13 13 13 14 14 15 15 16 16 17 17 17 17 17 17 18 18 18 19 19 19 19 19 18 18 18 18 18 18
12 13 12 12 12 12 12 12 12 12 12 12 12 13 13 13 13 14 14 15 16 16 17 17 17 17 17 18 18 19 19 19 19 19 20 20 20 20 21 21 20 19 19 19
12 13 13 13 13 13 13 13 13 13 14 14 14 13 13 14 14 15 15 16 16 16 17 17 18 18 18 19 19 20 20 19 19 19 20 20 21 21 22 22 21 20 20 20
12 13 13 13 14 14 14 14 14 14 15 15 14 14 14 14 15 16 16 17 17 17 17 17 18 18 19 19 20 20 20 20 20 20 20 20 21 21 21 21 21 21 21 20
14 14 14 14 15 15 15 15 16 16 16 16 16 15 15 16 16 17 17 18 18 18 19 19 19 19 20 20 21 21 20 21 21 21 21 21 21 22 21 21 21 21 21 20
15 15 15 15 15 16 16 16 17 17 18 18 18 18 17 17 18 18 18 18 19 19 20 20 21 21 20 21 21 21 21 21 21 21 22 22 23 22 22 22 22 22 22 21
16 16 16 16 17 17 17 17 18 19 19 20 20 19 19 18 19 19 20 20 20 20 21 21 22 21 21 21 21 22 22 22 22 22 22 23 23 22 23 23 23 23 22 22
18 18 18 18 18 18 18 18 18 19 20 21 20 20 20 20 20 20 21 21 21 22 22 22 22 22 22 21 22 22 22 23 23 23 23 23 23 23 23 23 23 23 23 23
19 19 19 19 19 19 19 19 19 20 20 21 21 21 20 20 21 21 22 22 23 23 23 22 22 22 23 23 23 23 23 23 23 23 23 24 23 23 24 24 23 23 24 24
19 20 20 20 20 20 20 20 21 21 21 21 21 21 21 22 22 22 23 23 23 23 23 23 23 23 23 23 24 23 23 24 24 24 24 24 24 24 24 25 24 24 24 25
21 21 22 21 22 22 22 21 21 21 22 22 22 22 22 23 23 23 24 24 24 24 24 23 23 24 24 24 24 24 24 25 25 25 25 25 25 25 25 25 25 25 26 26
22 22 22 22 22 23 22 21 21 22 22 23 23 23 23 24 24 24 25 25 25 25 25 25 25 25 25 25 26 25 25 25 26 26 26 26 26 26 26 26 26 26 26 26
22 22 22 22 23 23 22 22 22 22 22 23 23 23 23 24 25 25 25 25 25 25 26 26 26 26 26 26 26 26 26 26 27 27 27 27 27 27 27 27 27 27 27 26
22 22 23 23 23 23 23 23 22 23 23 22 23 23 24 24 25 25 26 26 26 26 26 27 27 27 27 27 27 27 27 28 28 28 28 28 28 28 28 28 28 28 27 27
23 23 23 24 25 24 23 23 23 23 23 23 23 24 25 25 26 26 27 27 27 28 28 28 28 28 28 28 29 29 29 29 30 30 30 30 30 30 30 30 29 29 28 28
24 24 24 25 25 26 23 23 23 24 24 24 24 25 25 26 26 27 27 28 28 29 29 29 30 30 30 30 30 30 31 31 31 31 31 31 31 32 32 31 30 30 29 28
24 25 25 26 26 26 26 25 25 25 25 25 25 25 26 26 26 27 28 28 29 30 30 30 31 31 31 31 31 32 32 32 32 32 32 32 32 32 32 32 31 31 30 29
25 25 25 26 26 27 27 27 26 25 26 26 26 27 27 27 27 28 29 29 30 30 31 31 31 31 31 32 32 33 33 33 33 33 32 32 32 32 32 32 32 32 31 31
25 25 25 25 26 27 27 27 27 26 27 27 28 28 28 28 28 28 29 31 31 31 31 31 31 32 32 32 33 33 34 33 33 33 33 33 32 32 32 32 32 32 32 32
25 26 26 26 26 27 27 27 27 26 26 27 27 28 28 28 28 29 30 31 31 31 32 32 32 33 33 33 33 33 34 34 33 33 33 33 33 33 32 33 32 32 32 32
Wind_Direction
249 247 246 248 250 256 259 256 253 255 258 261 266 269 272 276 276 275 277 278 279 277 278 279 279 281 281 281 282 283 286 287 288 290 291 292 294 296 296 295 295 293 291 290
248 247 247 248 251 254 256 251 255 258 258 261 265 271 276 277 277 277 276 277 280 279 277 278 280 282 283 282 282 282 284 286 286 288 290 292 293 293 294 292 292 292 289 288
251 251 250 250 253 251 250 251 256 259 260 262 266 270 275 278 278 280 279 277 278 278 280 281 282 283 284 284 283 280 282 285 287 288 290 291 290 292 293 293 291 291 290 289
249 251 251 252 249 250 252 253 256 259 262 265 268 271 274 276 278 281 282 281 280 280 281 282 283 285 285 284 283 281 283 285 286 288 289 287 289 292 293 293 292 290 291 290
252 251 250 253 254 252 252 255 257 260 263 267 270 270 273 276 278 281 282 282 281 281 281 281 283 286 286 285 283 281 282 284 285 287 288 288 289 291 293 293 292 291 290 290
252 251 251 253 255 258 259 259 262 264 265 266 270 271 273 274 277 280 282 283 282 281 280 281 284 286 287 287 286 283 282 283 284 286 287 288 288 289 290 291 291 289 289 288
252 252 252 252 255 258 258 259 264 266 266 268 270 271 273 275 276 279 283 283 283 283 282 282 284 286 286 287 287 285 284 284 285 285 286 286 286 286 287 287 288 287 285 284
253 253 254 254 255 258 258 258 260 264 268 272 272 275 276 276 277 279 282 284 286 286 286 285 285 285 286 285 286 285 285 286 286 285 284 284 285 284 284 284 284 284 282 282
253 254 254 256 256 256 258 258 260 264 268 272 275 278 278 279 279 281 282 284 288 289 288 287 286 287 287 286 286 287 287 288 288 288 288 286 286 286 286 283 281 281 280 281
252 255 256 257 257 257 258 259 261 264 270 274 275 279 282 283 283 284 284 285 287 288 289 288 287 288 289 289 288 288 289 289 289 289 290 290 289 289 288 286 284 281 279 279
254 255 257 258 258 259 260 260 262 266 270 274 278 279 281 283 283 283 285 284 283 284 286 288 287 288 290 290 289 288 288 288 288 289 289 290 291 290 289 286 285 284 281 278
255 257 258 260 259 259 260 262 264 266 270 274 278 281 281 283 284 284 286 286 283 283 285 287 288 288 289 290 290 289 289 289 288 288 288 290 291 292 290 286 284 284 282 280
256 258 260 261 260 260 260 261 263 265 267 272 276 279 281 282 283 284 285 285 284 284 285 287 287 287 288 289 289 289 289 288 288 288 288 288 290 290 289 288 284 283 281 280
256 258 259 261 264 264 263 264 265 266 268 272 276 278 281 283 282 283 283 284 284 285 286 286 287 286 287 287 288 288 288 288 289 289 289 289 289 290 289 288 285 282 280 280
256 257 258 260 262 265 266 267 268 268 270 274 277 278 281 282 281 281 282 283 284 285 286 286 286 286 287 288 289 289 289 289 290 290 290 289 289 289 289 287 285 283 282 281
257 258 258 261 264 266 267 269 270 269 271 274 276 277 279 280 280 281 282 282 283 284 285 285 286 286 286 286 287 289 289 289 290 290 289 289 288 288 288 287 285 284 284 282
256 260 261 263 266 267 268 269 271 272 274 274 275 277 278 278 279 280 282 283 284 284 284 284 284 285 285 286 287 288 289 289 289 290 289 289 289 288 287 287 287 285 284 283
258 261 264 266 266 267 269 269 271 273 275 275 276 277 277 278 277 278 280 281 282 282 282 283 284 284 285 286 287 288 289 290 289 289 290 290 289 288 288 288 286 285 284 284
259 262 264 266 267 269 270 271 272 274 275 276 276 277 279 279 279 279 281 281 281 281 282 282 283 284 284 285 285 286 288 289 289 289 289 288 288 288 288 288 288 286 285 284
259 263 264 265 268 271 272 274 275 276 276 277 278 279 279 280 279 280 280 281 281 281 281 282 283 284 284 284 285 286 287 288 288 288 287 287 287 287 288 289 288 286 285 283
259 261 263 265 267 270 273 275 276 277 278 279 280 279 280 280 280 281 280 281 282 281 281 282 282 283 283 284 286 287 286 287 288 288 288 287 287 288 289 288 287 286 283 282
261 263 263 265 267 269 272 274 275 276 279 280 281 282 282 282 280 281 281 281 283 284 283 283 282 281 282 282 284 285 286 286 287 286 286 286 286 287 288 287 286 284 282 281
263 265 266 266 267 269 271 273 275 276 278 280 281 282 283 282 282 282 281 282 283 285 285 284 283 283 283 284 284 285 286 287 287 287 286 286 287 286 285 285 284 283 281 280
264 266 268 268 268 269 271 273 275 276 278 280 282 283 284 284 284 284 284 283 284 285 286 285 284 284 284 285 285 285 285 286 286 287 286 286 286 286 285 284 283 282 281 280
266 268 268 270 271 271 272 273 275 276 278 279 280 282 284 285 285 286 286 285 285 286 286 285 285 286 286 286 286 286 286 286 286 285 285 285 286 286 285 283 282 281 281 281
268 269 268 269 271 272 271 272 275 277 279 280 280 281 283 285 286 286 286 286 286 286 286 285 285 286 286 286 286 286 286 286 285 285 285 284 284 285 284 283 282 281 280 281
Height
5870 5872 5872 5872 5873 5874 5874 5874 5875 5875 5875 5875 5875 5875 5875 5874 5874 5873 5873 5873 5872 5872 5871 5870 5870 5869 5868 5867 5866 5865 5864 5863 5863 5861 5860 5859 5857 5856 5855 5853 5851 5850 5848 5847
5868 5869 5870 5870 5870 5871 5871 5872 5872 5873 5873 5873 5873 5873 5872 5872 5872 5871 5871 5870 5870 5869 5868 5868 5867 5866 5865 5864 5863 5862 5861 5860 5859 5858 5857 5856 5854 5853 5852 5850 5848 5847 5845 5844
5866 5867 5866 5867 5868 5868 5869 5870 5870 5870 5870 5870 5871 5871 5870 5870 5869 5868 5868 5867 5867 5866 5865 5865 5864 5863 5862 5861 5860 5859 5858 5857 5856 5855 5854 5852 5851 5850 5848 5847 5845 5843 5842 5840
5862 5863 5864 5864 5865 5866 5866 5867 5867 5867 5868 5868 5869 5868 5868 5867 5866 5866 5865 5864 5864 5863 5862 5862 5861 5860 5859 5858 5857 5855 5854 5853 5852 5851 5850 5849 5847 5846 5844 5843 5841 5839 5838 5837
5860 5860 5861 5862 5862 5863 5863 5864 5864 5864 5865 5865 5865 5865 5865 5864 5863 5863 5862 5861 5860 5860 5859 5858 5857 5856 5855 5854 5853 5852 5850 5849 5848 5847 5846 5845 5843 5842 5840 5838 5837 5835 5834 5833
5857 5858 5858 5859 5859 5860 5860 5861 5861 5861 5862 5862 5862 5862 5862 5861 5860 5860 5859 5858 5857 5856 5855 5854 5853 5852 5851 5850 5848 5847 5846 5845 5844 5843 5841 5840 5839 5837 5836 5834 5833 5831 5830 5828
5854 5855 5855 5856 5856 5857 5857 5859 5859 5859 5859 5859 5859 5858 5859 5857 5856 5856 5855 5854 5853 5852 5851 5850 5849 5848 5847 5845 5844 5843 5841 5840 5839 5838 5837 5835 5834 5833 5831 5830 5828 5827 5826 5824
5851 5852 5852 5852 5853 5854 5854 5855 5857 5857 5856 5856 5855 5855 5855 5854 5853 5852 5851 5850 5849 5848 5847 5846 5845 5844 5842 5841 5839 5838 5837 5835 5834 5833 5831 5830 5829 5827 5826 5824 5823 5822 5821 5820
5848 5848 5849 5849 5849 5850 5850 5851 5852 5853 5852 5852 5852 5852 5851 5850 5849 5848 5847 5846 5845 5844 5842 5841 5840 5839 5838 5836 5835 5833 5832 5830 5829 5827 5826 5824 5823 5822 5820 5819 5817 5817 5816 5814
5844 5845 5845 5845 5845 5846 5847 5847 5848 5848 5848 5848 5848 5848 5848 5846 5845 5843 5842 5841 5840 5839 5838 5837 5835 5834 5833 5831 5830 5828 5826 5825 5823 5822 5820 5819 5817 5816 5814 5813 5812 5811 5810 5809
5839 5841 5841 5841 5841 5842 5843 5843 5843 5844 5844 5844 5844 5845 5843 5841 5840 5839 5838 5837 5835 5834 5833 5832 5830 5829 5827 5826 5824 5823 5821 5819 5818 5816 5815 5813 5812 5810 5808 5807 5806 5805 5804 5803
5835 5836 5836 5837 5837 5837 5838 5838 5839 5840 5839 5839 5839 5842 5837 5836 5835 5834 5833 5832 5830 5829 5828 5826 5825 5823 5822 5820 5818 5817 5815 5814 5812 5811 5809 5808 5806 5804 5802 5801 5799 5798 5798 5797
5830 5832 5832 5833 5834 5833 5833 5833 5834 5834 5834 5834 5834 5836 5832 5831 5830 5828 5827 5826 5825 5824 5822 5821 5819 5818 5816 5814 5813 5811 5809 5808 5806 5805 5803 5801 5800 5798 5796 5794 5793 5792 5791 5791
5825 5826 5828 5829 5828 5828 5828 5828 5828 5829 5828 5828 5829 5828 5826 5825 5824 5823 5822 5820 5819 5818 5817 5815 5813 5812 5810 5809 5807 5805 5803 5802 5800 5798 5797 5795 5793 5792 5790 5788 5786 5785 5784 5784
5820 5821 5821 5822 5822 5822 5823 5823 5823 5823 5823 5823 5823 5822 5821 5819 5818 5817 5816 5814 5813 5812 5810 5809 5807 5805 5804 5802 5801 5799 5797 5795 5793 5792 5790 5788 5787 5785 5784 5782 5780 5779 5778 5777
5814 5815 5816 5817 5817 5817 5817 5817 5817 5817 5816 5816 5816 5815 5814 5813 5812 5810 5809 5808 5807 5805 5804 5802 5801 5799 5797 5796 5794 5792 5790 5788 5786 5785 5783 5782 5780 5779 5777 5775 5773 5772 5770 5769
5808 5809 5810 5811 5811 5811 5811 5811 5811 5810 5810 5810 5809 5810 5807 5806 5805 5804 5803 5801 5800 5799 5797 5796 5794 5792 5791 5789 5787 5785 5783 5782 5780 5778 5776 5775 5773 5772 5770 5768 5766 5765 5763 5762
5802 5803 5804 5804 5805 5805 5807 5805 5805 5804 5804 5803 5802 5802 5800 5799 5798 5797 5796 5794 5793 5792 5790 5789 5787 5785 5784 5782 5780 5778 5776 5775 5773 5771 5769 5767 5766 5764 5762 5760 5759 5757 5755 5754
5796 5797 5797 5798 5798 5798 5800 5798 5798 5797 5797 5796 5795 5795 5793 5792 5791 5790 5788 5787 5786 5784 5783 5782 5780 5778 5776 5775 5773 5771 5769 5767 5765 5763 5762 5760 5758 5756 5754 5752 5750 5749 5747 5746
5789 5790 5791 5791 5791 5791 5793 5792 5791 5791 5790 5790 5788 5787 5786 5785 5784 5783 5781 5779 5778 5776 5775 5774 5772 5771 5769 5767 5765 5763 5761 5759 5757 5755 5754 5752 5750 5748 5746 5744 5742 5740 5738 5737
5783 5783 5784 5784 5783 5784 5785 5784 5784 5785 5784 5782 5781 5780 5779 5777 5777 5775 5773 5771 5770 5768 5767 5765 5764 5762 5761 5759 5757 5755 5753 5751 5749 5747 5745 5743 5741 5739 5737 5735 5733 5731 5730 5728
5776 5776 5777 5777 5777 5779 5777 5777 5777 5776 5775 5774 5773 5772 5771 5769 5768 5766 5765 5763 5761 5760 5758 5757 5755 5753 5752 5750 5748 5746 5744 5742 5740 5738 5736 5734 5732 5730 5728 5726 5724 5722 5720 5719
5768 5770 5769 5770 5771 5770 5769 5769 5768 5768 5767 5766 5765 5764 5763 5761 5759 5758 5756 5755 5753 5751 5749 5747 5746 5744 5742 5741 5739 5737 5735 5733 5731 5729 5727 5725 5722 5720 5718 5716 5714 5713 5711 5710
5761 5761 5761 5762 5762 5762 5761 5760 5760 5760 5759 5758 5757 5756 5754 5753 5751 5750 5748 5746 5744 5742 5739 5738 5736 5735 5733 5731 5729 5727 5725 5723 5721 5719 5717 5715 5713 5711 5708 5707 5705 5703 5702 5700
5754 5754 5754 5754 5754 5753 5753 5752 5752 5751 5750 5749 5748 5747 5745 5744 5742 5741 5739 5737 5735 5733 5730 5728 5727 5725 5723 5721 5719 5717 5715 5713 5711 5709 5707 5704 5702 5700 5698 5697 5695 5693 5692 5690
5746 5746 5746 5746 5746 5745 5745 5744 5744 5743 5742 5741 5740 5738 5737 5735 5733 5731 5729 5727 5725 5723 5721 5719 5717 5715 5713 5711 5709 5707 5705 5702 5700 5698 5696 5694 5692 5690 5688 5686 5685 5683 5682 5680